Time,TemperatureF,DewpointF,PressureIn,WindDirection,WindDirectionDegrees,WindSpeedMPH,WindSpeedGustMPH,Humidity,HourlyPrecipIn,Conditions,Clouds,dailyrainin,SoftwareType,DateUTC
2013-04-10 00:03:00,41.0,39.0,27.74,SSW,203,1.0,1.0,94,0.02,,,0.18,,2013-04-10 04:03:00,
2013-04-10 00:13:00,41.0,39.0,27.74,SSW,203,1.0,1.0,94,0.02,,,0.18,,2013-04-10 04:13:00,
2013-04-10 00:23:00,41.0,39.0,27.74,SSW,203,0.0,1.0,94,0.02,,,0.18,,2013-04-10 04:23:00,
2013-04-10 00:33:00,41.0,39.0,27.73,SSW,203,0.0,0.0,94,0.02,,,0.19,,2013-04-10 04:33:00,
2013-04-10 00:43:00,41.0,39.0,27.73,SSW,203,0.0,0.0,94,0.02,,,0.19,,2013-04-10 04:43:00,
2013-04-10 00:53:00,41.0,40.0,27.71,SE,138,1.0,1.0,95,0.01,,,0.19,,2013-04-10 04:53:00,
2013-04-10 01:03:00,41.0,40.0,27.72,SE,125,0.0,0.0,95,0.03,,,0.21,,2013-04-10 05:03:00,
2013-04-10 01:13:00,41.0,40.0,27.72,SE,125,0.0,0.0,95,0.03,,,0.21,,2013-04-10 05:13:00,
2013-04-10 01:23:00,41.0,40.0,27.72,SE,126,0.0,1.0,95,0.05,,,0.23,,2013-04-10 05:23:00,
2013-04-10 01:33:00,41.0,40.0,27.72,SW,215,0.0,1.0,95,0.08,,,0.27,,2013-04-10 05:33:00,
2013-04-10 01:42:00,41.0,40.0,27.72,SW,215,0.0,1.0,95,0.08,,,0.27,,2013-04-10 05:42:00,
2013-04-10 01:53:00,41.0,40.0,27.74,WSW,255,2.0,3.0,96,0.12,,,0.31,,2013-04-10 05:53:00,
2013-04-10 02:03:00,41.0,40.0,27.74,SW,235,1.0,2.0,96,0.15,,,0.36,,2013-04-10 06:03:00,
2013-04-10 02:12:00,41.0,40.0,27.75,SSW,212,1.0,2.0,96,0.16,,,0.39,,2013-04-10 06:12:00,
2013-04-10 02:22:00,41.0,40.0,27.75,SSW,212,1.0,2.0,96,0.16,,,0.39,,2013-04-10 06:22:00,
2013-04-10 02:32:00,41.0,40.0,27.75,West,275,0.0,2.0,96,0.18,,,0.45,,2013-04-10 06:32:00,
2013-04-10 02:42:00,41.0,40.0,27.75,West,275,0.0,2.0,96,0.18,,,0.45,,2013-04-10 06:42:00,
2013-04-10 02:52:00,41.0,40.0,27.75,SSW,210,1.0,2.0,96,0.22,,,0.53,,2013-04-10 06:52:00,
2013-04-10 03:02:00,41.0,40.0,27.71,East,84,1.0,2.0,96,0.21,,,0.57,,2013-04-10 07:02:00,
2013-04-10 03:12:00,41.0,40.0,27.71,East,84,1.0,2.0,96,0.21,,,0.57,,2013-04-10 07:12:00,
2013-04-10 03:22:00,41.0,40.0,27.71,ENE,78,1.0,2.0,96,0.20,,,0.60,,2013-04-10 07:22:00,
2013-04-10 03:32:00,41.0,40.0,27.71,ENE,77,0.0,1.0,96,0.16,,,0.53,,2013-04-10 07:32:00,
2013-04-10 03:42:00,41.0,40.0,27.71,ENE,77,0.0,1.0,96,0.16,,,0.53,,2013-04-10 07:42:00,
2013-04-10 03:52:00,41.0,40.0,27.71,ENE,78,0.0,1.0,96,0.10,,,0.55,,2013-04-10 07:52:00,
2013-04-10 04:02:00,41.0,40.0,27.70,East,81,0.0,1.0,97,0.08,,,0.57,,2013-04-10 08:02:00,
2013-04-10 04:12:00,41.0,40.0,27.70,East,81,0.0,1.0,97,0.08,,,0.57,,2013-04-10 08:12:00,
2013-04-10 04:22:00,41.0,40.0,27.71,East,79,0.0,0.0,97,0.06,,,0.58,,2013-04-10 08:22:00,
2013-04-10 04:32:00,41.0,40.0,27.70,East,79,0.0,1.0,97,0.06,,,0.53,,2013-04-10 08:32:00,
2013-04-10 04:42:00,41.0,40.0,27.70,East,79,0.0,1.0,97,0.06,,,0.53,,2013-04-10 08:42:00,
2013-04-10 04:52:00,41.0,40.0,27.70,SSW,205,0.0,1.0,97,0.04,,,0.54,,2013-04-10 08:52:00,
2013-04-10 05:02:00,41.0,40.0,27.70,SW,218,0.0,1.0,97,0.03,,,0.54,,2013-04-10 09:02:00,
2013-04-10 05:12:00,41.0,40.0,27.69,SW,217,0.0,1.0,97,0.03,,,0.55,,2013-04-10 09:12:00,
2013-04-10 05:22:00,41.0,40.0,27.69,SW,217,0.0,1.0,97,0.03,,,0.55,,2013-04-10 09:22:00,
2013-04-10 05:32:00,41.0,40.0,27.69,SW,218,0.0,0.0,97,0.03,,,0.54,,2013-04-10 09:32:00,
2013-04-10 05:43:00,41.0,40.0,27.69,SW,218,0.0,0.0,97,0.03,,,0.54,,2013-04-10 09:43:00,
2013-04-10 05:53:00,41.0,40.0,27.68,SW,217,0.0,0.0,97,0.03,,,0.55,,2013-04-10 09:53:00,
2013-04-10 06:03:00,41.0,40.0,27.68,South,176,0.0,1.0,97,0.03,,,0.55,,2013-04-10 10:03:00,
2013-04-10 06:13:00,41.0,40.0,27.69,South,176,0.0,0.0,97,0.02,,,0.55,,2013-04-10 10:13:00,
2013-04-10 06:23:00,41.0,40.0,27.69,South,176,0.0,0.0,97,0.02,,,0.55,,2013-04-10 10:23:00,
2013-04-10 06:33:00,41.0,40.0,27.70,South,176,0.0,1.0,97,0.01,,,0.55,,2013-04-10 10:33:00,
2013-04-10 06:43:00,41.0,40.0,27.70,South,176,0.0,1.0,97,0.01,,,0.55,,2013-04-10 10:43:00,
2013-04-10 06:53:00,41.0,40.0,27.71,South,181,0.0,1.0,97,0.00,,,0.55,,2013-04-10 10:53:00,
2013-04-10 07:02:00,41.0,40.0,27.72,South,181,0.0,0.0,97,0.00,,,0.55,,2013-04-10 11:02:00,
2013-04-10 07:12:00,41.0,40.0,27.72,South,181,0.0,0.0,97,0.00,,,0.55,,2013-04-10 11:12:00,
2013-04-10 07:22:00,41.0,40.0,27.72,South,181,0.0,1.0,97,0.00,,,0.55,,2013-04-10 11:22:00,
2013-04-10 07:32:00,41.0,40.0,27.72,South,183,0.0,1.0,97,0.00,,,0.55,,2013-04-10 11:32:00,
2013-04-10 07:42:00,41.0,40.0,27.72,South,183,0.0,1.0,97,0.00,,,0.55,,2013-04-10 11:42:00,
2013-04-10 07:53:00,41.0,40.0,27.71,SW,219,0.0,1.0,97,0.00,,,0.55,,2013-04-10 11:53:00,
2013-04-10 08:03:00,41.0,40.0,27.72,SW,221,0.0,1.0,97,0.00,,,0.55,,2013-04-10 12:03:00,
2013-04-10 08:12:00,41.0,40.0,27.72,SW,221,0.0,1.0,97,0.00,,,0.55,,2013-04-10 12:12:00,
2013-04-10 08:23:00,42.0,41.0,27.72,SW,219,0.0,1.0,97,0.00,,,0.55,,2013-04-10 12:23:00,
2013-04-10 08:33:00,42.0,41.0,27.72,SW,229,0.0,1.0,97,0.00,,,0.55,,2013-04-10 12:33:00,
2013-04-10 08:42:00,42.0,41.0,27.72,SW,229,0.0,1.0,97,0.00,,,0.55,,2013-04-10 12:42:00,
2013-04-10 08:52:00,43.0,42.0,27.73,WSW,253,1.0,2.0,97,0.00,,,0.55,,2013-04-10 12:52:00,
2013-04-10 09:02:00,43.0,42.0,27.73,West,266,0.0,1.0,97,0.00,,,0.55,,2013-04-10 13:02:00,
2013-04-10 09:12:00,43.0,42.0,27.73,West,266,0.0,1.0,97,0.00,,,0.55,,2013-04-10 13:12:00,
2013-04-10 09:23:00,44.0,43.0,27.73,SW,236,0.0,1.0,97,0.00,,,0.55,,2013-04-10 13:23:00,
2013-04-10 09:32:00,44.0,43.0,27.73,SSW,211,1.0,2.0,97,0.00,,,0.55,,2013-04-10 13:32:00,
2013-04-10 09:43:00,44.0,43.0,27.73,SSW,211,1.0,2.0,97,0.00,,,0.55,,2013-04-10 13:43:00,
2013-04-10 09:53:00,44.0,43.0,27.73,WSW,246,1.0,2.0,97,0.00,,,0.55,,2013-04-10 13:53:00,
2013-04-10 10:02:00,44.0,43.0,27.74,West,259,2.0,3.0,97,0.00,,,0.55,,2013-04-10 14:02:00,
2013-04-10 10:12:00,44.0,43.0,27.74,West,259,2.0,3.0,97,0.00,,,0.55,,2013-04-10 14:12:00,
2013-04-10 10:22:00,45.0,44.0,27.74,WSW,238,2.0,3.0,97,0.00,,,0.55,,2013-04-10 14:22:00,
2013-04-10 10:33:00,46.0,45.0,27.75,WNW,302,1.0,3.0,97,0.00,,,0.55,,2013-04-10 14:33:00,
2013-04-10 10:42:00,46.0,45.0,27.75,WNW,302,1.0,3.0,97,0.00,,,0.55,,2013-04-10 14:42:00,
2013-04-10 10:52:00,47.0,46.0,27.75,SW,231,1.0,4.0,95,0.00,,,0.55,,2013-04-10 14:52:00,
2013-04-10 11:03:00,48.0,46.0,27.74,WNW,295,1.0,2.0,93,0.00,,,0.55,,2013-04-10 15:03:00,
2013-04-10 11:12:00,48.0,46.0,27.74,WNW,295,1.0,2.0,93,0.00,,,0.55,,2013-04-10 15:12:00,
2013-04-10 11:23:00,48.0,46.0,27.75,WSW,242,1.0,4.0,92,0.00,,,0.55,,2013-04-10 15:23:00,
2013-04-10 11:33:00,48.0,45.0,27.74,West,278,2.0,5.0,90,0.00,,,0.55,,2013-04-10 15:33:00,
2013-04-10 11:42:00,48.0,45.0,27.74,West,278,2.0,5.0,90,0.00,,,0.55,,2013-04-10 15:42:00,
2013-04-10 11:53:00,49.0,46.0,27.73,ESE,110,1.0,4.0,89,0.00,,,0.55,,2013-04-10 15:53:00,
2013-04-10 12:03:00,49.0,45.0,27.73,WNW,294,3.0,8.0,86,0.00,,,0.55,,2013-04-10 16:03:00,
2013-04-10 12:13:00,49.0,45.0,27.73,WNW,294,3.0,8.0,86,0.00,,,0.55,,2013-04-10 16:13:00,
2013-04-10 12:23:00,50.0,46.0,27.73,WNW,284,1.0,4.0,85,0.00,,,0.55,,2013-04-10 16:23:00,
2013-04-10 12:33:00,50.0,45.0,27.73,NNE,18,2.0,4.0,84,0.00,,,0.55,,2013-04-10 16:33:00,
2013-04-10 12:43:00,50.0,45.0,27.73,NNE,18,2.0,4.0,84,0.00,,,0.55,,2013-04-10 16:43:00,
2013-04-10 12:53:00,50.0,45.0,27.73,NW,319,1.0,4.0,84,0.00,,,0.55,,2013-04-10 16:53:00,
2013-04-10 13:03:00,51.0,46.0,27.73,ENE,61,2.0,4.0,83,0.00,,,0.55,,2013-04-10 17:03:00,
2013-04-10 13:13:00,51.0,46.0,27.73,ESE,121,1.0,5.0,82,0.00,,,0.55,,2013-04-10 17:13:00,
2013-04-10 13:22:00,51.0,46.0,27.73,ESE,121,1.0,5.0,82,0.00,,,0.55,,2013-04-10 17:22:00,
2013-04-10 13:33:00,51.0,46.0,27.73,WNW,293,1.0,4.0,83,0.00,,,0.55,,2013-04-10 17:33:00,
2013-04-10 13:43:00,51.0,46.0,27.73,WNW,293,1.0,4.0,83,0.00,,,0.55,,2013-04-10 17:43:00,
2013-04-10 13:53:00,51.0,45.0,27.73,West,280,3.0,5.0,80,0.00,,,0.55,,2013-04-10 17:53:00,
2013-04-10 14:03:00,51.0,45.0,27.75,West,275,1.0,4.0,80,0.00,,,0.55,,2013-04-10 18:03:00,
2013-04-10 14:12:00,51.0,45.0,27.75,West,275,1.0,4.0,80,0.00,,,0.55,,2013-04-10 18:12:00,
2013-04-10 14:23:00,50.0,45.0,27.75,WSW,255,2.0,5.0,83,0.00,,,0.55,,2013-04-10 18:23:00,
2013-04-10 14:33:00,50.0,45.0,27.74,WSW,253,1.0,5.0,84,0.00,,,0.55,,2013-04-10 18:33:00,
2013-04-10 14:43:00,50.0,45.0,27.74,WSW,253,1.0,5.0,84,0.00,,,0.55,,2013-04-10 18:43:00,
2013-04-10 14:53:00,51.0,46.0,27.75,SW,221,1.0,3.0,82,0.00,,,0.55,,2013-04-10 18:53:00,
2013-04-10 15:03:00,50.0,45.0,27.74,WNW,283,2.0,4.0,82,0.00,,,0.55,,2013-04-10 19:03:00,
2013-04-10 15:13:00,50.0,45.0,27.74,WNW,283,2.0,4.0,82,0.00,,,0.55,,2013-04-10 19:13:00,
2013-04-10 15:22:00,50.0,45.0,27.71,NNW,333,0.0,2.0,84,0.00,,,0.55,,2013-04-10 19:22:00,
2013-04-10 15:33:00,49.0,45.0,27.68,North,352,1.0,3.0,87,0.00,,,0.55,,2013-04-10 19:33:00,
2013-04-10 15:42:00,49.0,45.0,27.68,North,352,1.0,3.0,87,0.00,,,0.55,,2013-04-10 19:42:00,
2013-04-10 15:53:00,49.0,45.0,27.68,West,270,0.0,2.0,87,0.00,,,0.55,,2013-04-10 19:53:00,
2013-04-10 16:03:00,50.0,45.0,27.69,WNW,290,0.0,3.0,84,0.00,,,0.55,,2013-04-10 20:03:00,
2013-04-10 16:12:00,50.0,45.0,27.68,SSE,163,0.0,1.0,84,0.00,,,0.55,,2013-04-10 20:12:00,
2013-04-10 16:23:00,50.0,45.0,27.68,SSE,163,0.0,1.0,84,0.00,,,0.55,,2013-04-10 20:23:00,
2013-04-10 16:33:00,50.0,46.0,27.70,ESE,112,0.0,1.0,86,0.00,,,0.55,,2013-04-10 20:33:00,
2013-04-10 16:42:00,49.0,44.0,27.69,NW,326,1.0,2.0,83,0.00,,,0.55,,2013-04-10 20:42:00,
2013-04-10 16:52:00,49.0,44.0,27.69,NW,326,1.0,2.0,83,0.00,,,0.55,,2013-04-10 20:52:00,
2013-04-10 17:03:00,49.0,43.0,27.68,West,259,1.0,3.0,81,0.00,,,0.55,,2013-04-10 21:03:00,
2013-04-10 17:13:00,49.0,43.0,27.68,West,259,1.0,3.0,81,0.00,,,0.55,,2013-04-10 21:13:00,
2013-04-10 17:22:00,49.0,43.0,27.68,ESE,117,0.0,1.0,81,0.00,,,0.55,,2013-04-10 21:22:00,
2013-04-10 17:33:00,49.0,44.0,27.69,West,266,1.0,3.0,82,0.00,,,0.55,,2013-04-10 21:33:00,
2013-04-10 17:43:00,49.0,44.0,27.69,West,266,1.0,3.0,82,0.00,,,0.55,,2013-04-10 21:43:00,
2013-04-10 17:53:00,48.0,43.0,27.69,WNW,284,0.0,1.0,83,0.00,,,0.55,,2013-04-10 21:53:00,
2013-04-10 18:03:00,48.0,43.0,27.68,SSE,165,0.0,1.0,84,0.00,,,0.55,,2013-04-10 22:03:00,
2013-04-10 18:13:00,48.0,43.0,27.68,SSE,165,0.0,1.0,84,0.00,,,0.55,,2013-04-10 22:13:00,
2013-04-10 18:23:00,48.0,44.0,27.68,SE,143,0.0,1.0,86,0.00,,,0.55,,2013-04-10 22:23:00,
2013-04-10 18:33:00,47.0,44.0,27.69,WSW,240,0.0,1.0,89,0.00,,,0.55,,2013-04-10 22:33:00,
2013-04-10 18:42:00,47.0,44.0,27.69,WSW,240,0.0,1.0,89,0.00,,,0.55,,2013-04-10 22:42:00,
2013-04-10 18:53:00,46.0,43.0,27.68,WSW,240,0.0,1.0,90,0.00,,,0.55,,2013-04-10 22:53:00,
2013-04-10 19:03:00,46.0,44.0,27.67,ESE,113,0.0,1.0,91,0.00,,,0.55,,2013-04-10 23:03:00,
2013-04-10 19:12:00,46.0,44.0,27.67,ESE,113,0.0,1.0,91,0.00,,,0.55,,2013-04-10 23:12:00,
2013-04-10 19:22:00,45.0,43.0,27.66,ESE,113,0.0,0.0,92,0.00,,,0.55,,2013-04-10 23:22:00,
2013-04-10 19:33:00,45.0,43.0,27.70,WSW,253,1.0,1.0,93,0.00,,,0.55,,2013-04-10 23:33:00,
2013-04-10 19:42:00,45.0,43.0,27.70,WSW,253,1.0,1.0,93,0.00,,,0.55,,2013-04-10 23:42:00,
2013-04-10 19:53:00,45.0,43.0,27.69,East,98,0.0,2.0,93,0.04,,,0.59,,2013-04-10 23:53:00,
2013-04-10 20:02:00,44.0,42.0,27.65,ENE,72,2.0,3.0,94,0.06,,,0.61,,2013-04-11 00:02:00,
2013-04-10 20:13:00,44.0,42.0,27.65,ENE,72,2.0,3.0,94,0.06,,,0.61,,2013-04-11 00:13:00,
2013-04-10 20:23:00,44.0,43.0,27.66,ENE,67,0.0,1.0,95,0.07,,,0.62,,2013-04-11 00:23:00,
2013-04-10 20:32:00,44.0,43.0,27.67,SE,139,0.0,1.0,95,0.10,,,0.65,,2013-04-11 00:32:00,
2013-04-10 20:42:00,44.0,43.0,27.67,SE,139,0.0,1.0,95,0.10,,,0.65,,2013-04-11 00:42:00,
2013-04-10 20:53:00,44.0,43.0,27.68,SSE,156,0.0,1.0,95,0.06,,,0.66,,2013-04-11 00:53:00,
2013-04-10 21:02:00,44.0,43.0,27.69,SSW,207,0.0,1.0,96,0.07,,,0.68,,2013-04-11 01:02:00,
2013-04-10 21:12:00,44.0,43.0,27.69,SSW,207,0.0,1.0,96,0.07,,,0.68,,2013-04-11 01:12:00,
2013-04-10 21:22:00,44.0,43.0,27.71,West,263,0.0,1.0,96,0.08,,,0.70,,2013-04-11 01:22:00,
2013-04-10 21:32:00,44.0,43.0,27.69,WNW,294,0.0,0.0,96,0.07,,,0.71,,2013-04-11 01:32:00,
2013-04-10 21:42:00,44.0,43.0,27.69,WNW,294,0.0,0.0,96,0.07,,,0.71,,2013-04-11 01:42:00,
2013-04-10 21:52:00,43.0,42.0,27.68,ESE,106,0.0,1.0,96,0.05,,,0.71,,2013-04-11 01:52:00,
2013-04-10 22:03:00,43.0,42.0,27.68,ESE,105,0.0,0.0,96,0.03,,,0.71,,2013-04-11 02:03:00,
2013-04-10 22:12:00,43.0,42.0,27.69,East,94,0.0,1.0,96,0.02,,,0.72,,2013-04-11 02:12:00,
2013-04-10 22:22:00,43.0,42.0,27.69,East,94,0.0,1.0,96,0.02,,,0.72,,2013-04-11 02:22:00,
2013-04-10 22:32:00,43.0,42.0,27.68,East,94,1.0,2.0,96,0.04,,,0.75,,2013-04-11 02:32:00,
2013-04-10 22:42:00,43.0,42.0,27.68,East,94,1.0,2.0,96,0.04,,,0.75,,2013-04-11 02:42:00,
2013-04-10 22:53:00,43.0,42.0,27.68,East,96,0.0,1.0,96,0.04,,,0.75,,2013-04-11 02:53:00,
2013-04-10 23:02:00,43.0,42.0,27.68,East,96,0.0,1.0,96,0.05,,,0.76,,2013-04-11 03:02:00,
2013-04-10 23:12:00,43.0,42.0,27.68,East,96,0.0,1.0,96,0.05,,,0.76,,2013-04-11 03:12:00,
2013-04-10 23:22:00,43.0,42.0,27.68,East,96,0.0,0.0,96,0.04,,,0.76,,2013-04-11 03:22:00,
2013-04-10 23:33:00,42.0,41.0,27.69,East,96,0.0,0.0,96,0.01,,,0.76,,2013-04-11 03:33:00,
2013-04-10 23:43:00,42.0,41.0,27.69,East,96,0.0,0.0,96,0.01,,,0.76,,2013-04-11 03:43:00,
2013-04-10 23:54:00,42.0,41.0,27.69,East,96,0.0,0.0,96,0.01,,,0.76,,2013-04-11 03:54:00,